Regional Weather Roundup
Issued by NWS

Home | Current Version | Previous Version | Graphics & Text | Print | Product List | Glossary On
Versions: 1 2 3 4 5 6 7 8 9 10 11 12 13 14 15 16 17 18 19 20 21 22 23 24 25 26 27 28 29 30 31 32 33 34 35 36 37 38 39 40 41 42 43 44 45 46 47 48 49 50
000
ASUS43 KMKX 050711
RWRWI

WISCONSIN REGIONAL WEATHER ROUNDUP
NATIONAL WEATHER SERVICE MILWAUKEE/SULLIVAN WI
200 AM CDT WED AUG 05 2015

NOTE: "FAIR" INDICATES FEW OR NO CLOUDS BELOW 12,000 FEET WITH NO
SIGNIFICANT WEATHER AND/OR OBSTRUCTIONS TO VISIBILITY.

WIZ001-002-006>008-014>016-023>028-050800-
NORTHWEST WISCONSIN

CITY           SKY/WX    TMP DP  RH WIND       PRES   REMARKS
SUPERIOR ARPT  PTCLDY    51  49  93 NE5       30.08F
ASHLAND        CLEAR     47  46  97 W3        30.08S FOG
HAYWARD        CLEAR     50  48  93 N5        30.08S
SIREN          CLEAR     56  53  90 CALM      30.06S
CUMBERLAND     CLEAR     54  52  94 CALM      30.07S
RICE LAKE      CLEAR     54  53  94 CALM      30.07F
CHETEK         CLEAR     59  54  85 NE3       30.06S
LADYSMITH      MOCLDY    56  53  88 CALM      30.08S
EAU CLAIRE     CLEAR     60  55  83 NE7       30.03S
MENOMONIE      CLEAR     60  56  89 N5        30.05R
NEW RICHMOND   CLEAR     58  55  88 CALM      30.04F
OSCEOLA        CLEAR     60  59  96 E5        30.06F
$$

WIZ003>005-009-010-017-018-050800-
NORTH CENTRAL WISCONSIN

CITY           SKY/WX    TMP DP  RH WIND       PRES   REMARKS
MANITOWISH WTR CLEAR     45  45 100 CALM      30.09S
ARBOR VITAE    CLEAR     52  50  93 CALM      30.08F
WOODRUFF       CLEAR     52  50  93 CALM      30.08F
RHINELANDER    PTCLDY    52  50  93 CALM      30.08F
EAGLE RIVER    PTCLDY    44  44 100 CALM      30.08F
LAND O LAKES   CLEAR     42  42  99 CALM      30.09F
PHILLIPS       CLOUDY    54  51  92 CALM      30.07F
TOMAHAWK       CLOUDY    57  51  81 NE3       30.07F
MEDFORD        CLEAR     52  51  95 CALM      30.07S
MERRILL        NOT AVBL
$$

WIZ029-030-035-036-043>047-050800-
CENTRAL WISCONSIN

CITY           SKY/WX    TMP DP  RH WIND       PRES   REMARKS
WAUSAU         CLEAR     58  52  80 NE3       30.05S
MOSINEE        CLEAR     55  52  88 CALM      30.07R
MARSHFIELD     CLEAR     59  52  77 NE6       30.05S
STEVENS POINT  CLEAR     51  50  95 CALM      30.05F
WAUPACA        CLEAR     57  56  95 N3        30.04S
WAUTOMA        CLOUDY    61  56  83 CALM      30.04F
WISC RAPIDS    PTCLDY    58  54  86 CALM      30.05F
CAMP DOUGLAS   MOCLDY    54  54 100 CALM      30.03S
$$

WIZ011>013-019>022-031-037>040-048>050-050800-
NORTHEAST WISCONSIN

CITY           SKY/WX    TMP DP  RH WIND       PRES   REMARKS
ANTIGO         CLOUDY    55  53  92 NE3       30.08S
SHAWANO        MOCLDY    64  58  82 NE7       30.05S
OCONTO         MOCLDY    57  57 100 NE3       30.04F
STURGEON BAY   CLEAR     59  54  82 E6        30.07F
GREEN BAY      CLEAR     59  55  87 NE3       30.04F
MANITOWOC      CLEAR     59  58  96 MISG      30.03F
APPLETON       CLEAR     59  55  88 NE3       30.04S
CLINTONVILLE   CLEAR     57  55  94 CALM      30.04S
OSHKOSH        CLEAR     58  53  84 CALM      30.03S
$$

WIZ032>034-041-042-053>061-050800-
SOUTHWEST WISCONSIN

CITY           SKY/WX    TMP DP  RH WIND       PRES   REMARKS
LA CROSSE      CLEAR     61  58  90 SE6       30.03S
SPARTA         CLEAR     52  51  94 CALM      30.05S
VIROQUA        CLEAR     57  56  95 CALM      30.05F
BOSCOBEL       PTCLDY    55  53  93 CALM      30.05S
PRAIRIE DU CHI PTCLDY    58  55  92 E3        30.04S
PLATTEVILLE    PTCLDY    61  55  79 CALM      30.04F
$$

WIZ056-057-062-063-064-067-068-050800-
SOUTH CENTRAL WISCONSIN

CITY           SKY/WX    TMP DP  RH WIND       PRES   REMARKS
REEDSBURG      CLEAR     56  55  97 CALM      30.04S
BARABOO/DELLS  CLEAR     56  52  85 CALM      30.04S
LONE ROCK      CLEAR     55  53  93 CALM      30.05S
MINERAL POINT  PTCLDY    63  55  77 CALM      30.06S
MADISON        CLEAR     58  54  86 CALM      30.04S
MIDDLETON      CLEAR     55  53  91 CALM      30.05S
WATERTOWN      CLEAR     55  55 100 CALM      30.03S
MONROE         CLEAR     68  52  56 W6        30.05S
JANESVILLE     FAIR      57  55  94 CALM      30.04R
$$

WIZ051-052-058>065-066-070>072-050800-
SOUTHEAST WISCONSIN

CITY           SKY/WX    TMP DP  RH WIND       PRES   REMARKS
MILWAUKEE      PTCLDY    63  55  75 CALM      30.03S
WAUKESHA       CLEAR     55  52  88 CALM      30.05S
MILWAUKEE/TIMM CLEAR     61  52  72 CALM      30.04S
RACINE         CLEAR     63  56  78 W5        30.04F
BURLINGTON     CLEAR     53  53  97 CALM      30.03F
KENOSHA        PTCLDY    58  56  93 W3        30.03S
FOND DU LAC    CLEAR     56  54  93 CALM      30.03S
SHEBOYGAN      CLEAR     58  54  86 N5        30.03S
WEST BEND      CLEAR     55  54  94 CALM      30.03F
JUNEAU         PTCLDY    59  55  86 CALM      30.04F
$$

LSZ147-162-050800-
LAKE SUPERIOR

STATION/POSITION TIME  TEMP    WIND        PRES    WAVE
                       AIR SEA DIR/SP/G            HT/PER
                 (UTC) (F)     (DEG/KT/KT) (MB)    (FT/S)
W MID LAKE BUOY  0650   58 57  290/  6/  6 1018.3S   0
DEVILS ISLAND    0700   57     310/  5/  6 1019.0R
PORT WING        0640   55     130/  1/  6 1018.6S
SAXON HARBOR     0640   52      CALM  /  3 1018.3R
$$

LMZ867-665-643>646-050800-
LAKE MICHIGAN

STATION/POSITION TIME  TEMP    WIND        PRES    WAVE
                       AIR SEA DIR/SP/G            HT/PER
                 (UTC) (F)     (DEG/KT/KT) (MB)    (FT/S)
CHAMBERS ISLAND  0600   64      40/  4/  8 1017.9R
N MID LAKE BUOY  0650   61 68  310/  6/ 10 1017.6S   1/ 3
NORTHPORT PIER   0700   63     320/  6/ 10 1017.6S
SISTER BAY       0618   59      40/  1/  4   N/A
ALGOMA LAKESHORE 0612           30/  7/  8   N/A
KEWAUNEE LAKESHO 0600   62      20/  4/  7 1016.7R
SHEBOYGAN LAKESH 0700   63     330/  6/  6 1016.8F
PORT WASHINGTON  0600   66     270/  4/  6 1017.3S
ATWATER BUOY     0700   64 60   CALM  /  2 1017.9F
MILWAUKEE LAKESH 0600   69     270/  1/  2   N/A
KENOSHA   LAKESH 0700   66     260/  1/  3 1016.6S
$$

TC  - TEMPERATURE IN CELSIUS
VSB - VISIBILITY IN STATUTE MILES
WCI - WIND CHILL INDEX
HX  - HEAT INDEX



USA.gov is the U.S. government's official web portal to all federal, state and local government web resources and services.